DW0479 Weather Reports


Display with metric or nautical units.
time (UTC)temp
F
wind
direction
speed
MPH
gust
MPH
rain 1hr
in
rain 24hr
in
rain mn
in
humidity
%
barometer
mb
20260902125901 81 20 4.0 9.0 0.00 0.15 0.00 92 1016.0
20260902124903 81 343 3.0 6.0 0.00 0.15 0.00 93 1016.1
20260902124828 80 340 3.0 6.0 0.00 0.15 0.00 94 1016.1
20260902122859 80 348 1.0 6.0 0.00 0.15 0.00 94 1016.1
20260902121858 79 341 1.0 4.0 0.00 0.15 0.00 95 1016.1
20260902120859 79 340 0.0 2.0 0.00 0.15 0.00 95 1016.1
20260902115859 78 340 0.0 2.0 0.00 0.15 0.00 95 1016.0
20260902114858 78 340 0.0 2.0 0.00 0.15 0.00 95 1015.8
20260902114334 77 340 0.0 3.0 0.00 0.15 0.00 95 1015.8
20260902112857 77 340 0.0 2.0 0.00 0.15 0.00 95 1015.7
20260902111858 77 340 0.0 2.0 0.00 0.15 0.00 94 1015.6
20260902110900 77 340 1.0 4.0 0.00 0.15 0.00 94 1015.5
20260902105844 77 340 2.0 4.0 0.00 0.15 0.00 95 1015.2
20260902104844 77 347 2.0 4.0 0.00 0.15 0.00 94 1015.2
20260902103845 77 352 2.0 5.0 0.00 0.15 0.00 95 1015.1
20260902103324 77 48 1.0 3.0 0.00 0.15 0.00 94 1015.0
20260902101845 77 100 1.0 3.0 0.00 0.15 0.00 95 1015.0
20260902101332 76 100 0.0 2.0 0.00 0.15 0.00 94 1015.0
20260902095841 77 100 1.0 3.0 0.00 0.15 0.00 94 1015.0
20260902094842 76 100 0.0 1.0 0.00 0.15 0.00 94 1015.0
20260902093841 76 100 0.0 1.0 0.00 0.15 0.00 94 1015.0
20260902092838 76 100 0.0 2.0 0.00 0.15 0.00 94 1014.9
20260902091840 76 100 1.0 2.0 0.00 0.15 0.00 94 1014.9
20260902090840 76 100 0.0 1.0 0.00 0.15 0.00 94 1014.8
20260902085838 76 100 0.0 0.0 0.00 0.15 0.00 94 1014.7
20260902084840 76 100 0.0 0.0 0.00 0.15 0.00 94 1014.7
20260902084320 76 100 0.0 0.0 0.00 0.15 0.00 94 1014.7
20260902082839 76 100 0.0 0.0 0.00 0.15 0.00 94 1014.7
20260902081840 76 100 0.0 1.0 0.00 0.15 0.00 94 1014.7
20260902080835 77 100 0.0 2.0 0.00 0.15 0.00 94 1014.7
20260902075836 76 100 0.0 2.0 0.00 0.15 0.00 94 1014.7
20260902074835 76 100 2.0 4.0 0.00 0.15 0.00 94 1014.7
20260902073826 76 100 1.0 2.0 0.00 0.15 0.00 94 1014.7
20260902072824 76 100 0.0 1.0 0.00 0.15 0.00 94 1014.8
20260902071823 77 100 0.0 1.0 0.00 0.15 0.00 94 1014.9
20260902070822 77 100 0.0 1.0 0.00 0.15 0.00 94 1014.8
20260902065810 77 100 0.0 0.0 0.00 0.15 0.00 94 1014.9
20260902064810 76 100 0.0 0.0 0.00 0.15 0.00 94 1014.9
20260902063809 76 100 0.0 1.0 0.00 0.15 0.00 94 1015.0
20260902062810 76 100 0.0 0.0 0.00 0.15 0.00 93 1015.2
20260902061755 77 100 0.0 0.0 0.00 0.15 0.00 94 1015.4
20260902060757 77 100 0.0 0.0 0.00 0.15 0.00 93 1015.3
20260902055756 77 100 0.0 0.0 0.00 0.15 0.00 93 1015.4
20260902054755 77 100 0.0 0.0 0.00 0.15 0.00 93 1015.6
20260902053752 77 100 0.0 0.0 0.00 0.15 0.00 93 1015.5
20260902052753 77 100 0.0 0.0 0.00 0.15 0.00 93 1015.5
20260902051753 77 100 0.0 0.0 0.00 0.15 0.00 93 1015.5
20260902050754 77 100 0.0 0.0 0.00 0.15 0.00 93 1015.5
20260902045753 78 100 0.0 0.0 0.00 0.15 0.00 93 1015.5
20260902044747 78 100 0.0 0.0 0.00 0.15 0.00 92 1015.6
20260902043746 78 100 0.0 0.0 0.00 0.15 0.00 92 1015.7
20260902042747 78 100 0.0 0.0 0.00 0.15 0.00 92 1015.7
20260902041746 78 100 0.0 0.0 0.00 0.15 0.00 92 1015.7
20260902040747 78 100 0.0 1.0 0.00 0.15 0.00 91 1015.8
20260902040224 78 100 1.0 2.0 0.00 0.15 0.15 91 1015.8
20260902034744 79 100 1.0 2.0 0.00 0.15 0.15 91 1015.9
20260902033745 79 100 0.0 2.0 0.00 0.15 0.15 91 1016.0
20260902032746 79 100 0.0 0.0 0.00 0.15 0.15 91 1016.0
20260902031744 79 100 0.0 0.0 0.00 0.15 0.15 91 1016.1
20260902030749 79 100 0.0 0.0 0.00 0.15 0.15 90 1016.1
20260902025746 79 100 0.0 0.0 0.00 0.15 0.15 90 1016.2
20260902024745 79 100 0.0 0.0 0.00 0.15 0.15 90 1016.3
20260902023745 80 100 0.0 0.0 0.00 0.15 0.15 90 1016.3
20260902022745 80 100 0.0 0.0 0.00 0.15 0.15 89 1016.4
20260902021744 80 100 0.0 3.0 0.00 0.15 0.15 89 1016.3
20260902021705 80 100 1.0 3.0 0.00 0.15 0.15 89 1016.2
20260902015747 80 100 0.0 2.0 0.00 0.15 0.15 90 1015.9
20260902014721 80 100 0.0 1.0 0.00 0.15 0.15 90 1016.0
20260902014118 80 100 0.0 2.0 0.00 0.15 0.15 89 1016.0
20260902013111 80 100 0.0 0.0 0.00 0.15 0.15 89 1016.1
20260902011634 81 100 0.0 0.0 0.00 0.15 0.15 89 1015.9
20260902010628 81 100 0.0 0.0 0.00 0.15 0.15 88 1015.9
20260902005627 81 100 0.0 0.0 0.00 0.15 0.15 87 1016.0
20260902004623 82 100 0.0 2.0 0.00 0.15 0.15 85 1015.9
20260902003602 82 100 0.0 3.0 0.00 0.15 0.15 85 1015.8
20260902002558 83 100 0.0 4.0 0.00 0.15 0.15 85 1015.8
20260902001547 83 98 1.0 4.0 0.00 0.15 0.15 84 1015.7
20260902000541 83 96 1.0 4.0 0.00 0.15 0.15 84 1015.6
20260901235540 83 96 1.0 4.0 0.00 0.15 0.15 84 1015.5
20260901235012 83 96 2.0 4.0 0.00 0.15 0.15 83 1015.5
20260901234012 83 96 3.0 5.0 0.00 0.15 0.15 82 1015.5
20260901232537 83 69 2.0 7.0 0.00 0.15 0.15 82 1015.4
20260901231537 84 95 2.0 6.0 0.00 0.15 0.15 82 1015.5
20260901230526 84 96 1.0 6.0 0.00 0.15 0.15 82 1015.3
20260901225524 84 97 1.0 4.0 0.00 0.15 0.15 81 1015.2
20260901224524 84 97 1.0 6.0 0.00 0.15 0.15 80 1015.4
20260901224010 84 90 2.0 4.0 0.00 0.15 0.15 79 1015.2
20260901222511 85 90 3.0 7.0 0.00 0.15 0.15 78 1015.2
20260901221510 85 79 2.0 7.0 0.00 0.15 0.15 77 1015.1
20260901220508 85 97 3.0 9.0 0.00 0.15 0.15 77 1015.0
20260901220002 86 113 3.0 7.0 0.00 0.15 0.15 77 1014.9
20260901214505 87 78 4.0 8.0 0.00 0.15 0.15 77 1014.9
20260901213505 87 71 4.0 10.0 0.00 0.15 0.15 76 1014.8
20260901213414 88 55 4.0 11.0 0.00 0.15 0.15 74 1014.6
20260901211458 89 45 4.0 11.0 0.00 0.15 0.15 75 1014.5
20260901210455 89 63 5.0 10.0 0.00 0.15 0.15 73 1014.7
20260901205454 89 43 5.0 10.0 0.00 0.15 0.15 73 1015.0
20260901204454 90 90 5.0 11.0 0.00 0.16 0.15 71 1014.8
20260901203445 90 15 6.0 13.0 0.00 0.17 0.15 72 1014.8
20260901202922 91 67 7.0 13.0 0.00 0.17 0.15 72 1015.0
20260901201434 91 5 8.0 17.0 0.01 0.18 0.15 73 1015.0
20260901200432 91 27 7.0 15.0 0.01 0.18 0.15 71 1015.0
20260901195426 90 25 6.0 11.0 0.01 0.19 0.15 74 1015.1
20260901194426 90 60 6.0 12.0 0.01 0.20 0.15 74 1015.2
20260901193420 90 44 6.0 14.0 0.01 0.21 0.15 73 1015.2
20260901192420 90 54 7.0 14.0 0.01 0.22 0.15 73 1015.2
20260901191855 90 25 5.0 10.0 0.00 0.22 0.14 73 1015.1
20260901190852 90 43 5.0 11.0 0.00 0.24 0.14 69 1015.5
20260901185409 88 10 6.0 12.0 0.00 0.29 0.14 74 1015.6
20260901184846 88 27 4.0 10.0 0.00 0.39 0.14 81 1015.9
20260901183405 87 59 5.0 10.0 0.00 0.42 0.14 80 1016.0
20260901182402 87 10 7.0 13.0 0.00 0.42 0.14 81 1016.2
20260901181402 86 1 9.0 17.0 0.00 0.42 0.14 81 1016.1
20260901180401 87 5 5.0 10.0 0.00 0.42 0.14 80 1016.3
20260901175357 86 346 2.0 6.0 0.00 0.42 0.14 82 1016.3
20260901174353 85 317 1.0 4.0 0.00 0.42 0.14 84 1016.3
20260901173354 85 317 1.0 4.0 0.00 0.42 0.14 86 1016.5
20260901172345 85 318 0.0 3.0 0.00 0.42 0.14 87 1016.6
20260901171836 84 318 1.0 4.0 0.00 0.42 0.14 87 1016.7
20260901170345 83 319 1.0 3.0 0.00 0.42 0.14 88 1016.9
20260901165827 83 320 0.0 2.0 0.00 0.42 0.14 90 1017.0
20260901164334 81 320 0.0 1.0 0.00 0.42 0.14 89 1017.0
20260901163332 81 320 0.0 4.0 0.00 0.42 0.14 91 1017.1
20260901162329 82 22 1.0 4.0 0.00 0.42 0.14 91 1017.2
20260901161328 81 29 0.0 0.0 0.01 0.42 0.14 91 1017.2
20260901161248 80 29 1.0 4.0 0.12 0.42 0.14 90 1017.2
20260901155312 82 19 2.0 4.0 0.12 0.42 0.14 91 1017.4
20260901154749 82 5 0.0 3.0 0.14 0.42 0.14 91 1017.4
20260901153308 82 5 1.0 3.0 0.14 0.42 0.14 90 1017.2
20260901152307 82 5 1.0 4.0 0.14 0.42 0.14 92 1017.3
20260901151741 82 5 3.0 8.0 0.13 0.41 0.13 91 1017.3
20260901150258 83 320 2.0 6.0 0.02 0.30 0.02 91 1017.2
20260901145255 83 329 4.0 8.0 0.02 0.30 0.02 89 1017.1
20260901144246 84 346 4.0 8.0 0.00 0.28 0.00 89 1017.0
20260901143725 84 319 3.0 5.0 0.00 0.28 0.00 89 1016.9
20260901142235 84 352 1.0 4.0 0.00 0.28 0.00 88 1016.9
20260901141237 84 352 2.0 4.0 0.00 0.28 0.00 86 1016.9
20260901140719 84 352 0.0 1.0 0.00 0.28 0.00 89 1016.8
20260901135216 83 352 1.0 3.0 0.00 0.28 0.00 89 1016.8
20260901134213 83 352 2.0 5.0 0.00 0.28 0.00 89 1016.8
20260901133658 83 358 2.0 4.0 0.00 0.28 0.00 90 1016.6
20260901132210 83 358 2.0 4.0 0.00 0.28 0.00 92 1016.7
20260901131210 83 356 2.0 5.0 0.00 0.28 0.00 93 1016.7